Location: Angwan Shehu
(11.2514°N, 7.4613°E)
Time: 20:24:26
(UTC+00:00)

Vanguard 1 - All Passes

Search period start: 17 April 2021 00:00
Search period end: 27 April 2021 00:00
Orbit: 648 x 3834 km, 34.3° (Epoch: 17 April)

Date Brightness Start Highest point End Pass type
(mag) Time Alt. Az. Time Alt. Az. Time Alt. Az.
17 Apr - 08:40:36 10° SE 08:42:42 11° SE 08:45:03 10° ESE daylight
17 Apr - 10:53:55 10° SW 11:02:49 69° SE 11:19:49 10° ENE daylight
17 Apr - 13:14:55 10° W 13:27:39 52° NNW 13:48:50 10° NE daylight
17 Apr - 15:40:59 10° WNW 15:58:28 37° N 16:19:21 10° ENE daylight
17 Apr - 18:09:25 10° NW 18:31:33 45° NNE 18:49:35 10° E visible
17 Apr - 20:37:34 10° NW 21:00:28 82° NE 21:14:02 10° ESE visible
17 Apr - 23:08:24 10° WNW 23:23:32 35° SW 23:32:43 10° SSE visible
18 Apr - 08:58:00 10° S 09:03:14 20° SE 09:10:43 10° E daylight
18 Apr - 11:14:37 10° SW 11:23:51 90° SE 11:41:45 10° NE daylight
18 Apr - 13:36:45 10° W 13:49:58 45° NNW 14:10:51 10° NE daylight
18 Apr - 16:03:26 10° WNW 16:21:43 37° N 16:42:18 10° ENE daylight
18 Apr - 18:31:19 10° NW 18:54:12 52° NNE 19:11:51 10° E visible
18 Apr - 20:59:24 10° WNW 21:21:52 82° SW 21:34:58 10° SE visible
18 Apr - 23:32:07 10° W 23:44:09 24° SW 23:52:13 10° S visible
19 Apr - 09:17:22 10° SSW 09:23:42 31° SE 09:34:05 10° ENE daylight
19 Apr - 11:35:35 10° WSW 11:45:12 72° NNW 12:03:31 10° NE daylight
19 Apr - 13:58:48 10° WNW 14:12:33 39° N 14:33:08 10° NE daylight
19 Apr - 16:25:44 10° NW 16:44:55 38° N 17:05:20 10° ENE daylight
19 Apr - 18:53:02 10° NW 19:16:33 60° NNE 19:33:48 10° ESE visible
19 Apr - 21:21:27 10° WNW 21:43:00 66° SW 21:55:39 10° SE visible
19 Apr - 23:57:18 10° W 00:04:53 15° SW 00:10:45 10° SSW visible
20 Apr - 09:37:21 10° SSW 09:44:14 47° SE 09:56:38 10° ENE daylight
20 Apr - 11:56:51 10° WSW 12:06:50 57° NNW 12:25:16 10° NE daylight
20 Apr - 14:21:01 10° WNW 14:35:22 36° N 14:55:46 10° NE daylight
20 Apr - 16:47:48 10° NW 17:08:00 41° NNE 17:28:19 10° E daylight
20 Apr - 19:14:40 10° NW 19:38:37 71° NNE 19:55:25 10° ESE visible
20 Apr - 21:43:51 10° WNW 22:03:56 51° SW 22:16:02 10° SSE visible
21 Apr - 09:57:45 10° SW 10:04:57 69° SE 10:18:43 10° ENE daylight
21 Apr - 12:18:22 10° W 12:28:46 47° NNW 12:47:05 10° NE daylight
21 Apr - 14:43:15 10° WNW 14:58:22 35° N 15:18:46 10° ENE daylight
21 Apr - 17:09:38 10° NW 17:30:52 46° NNE 17:51:06 10° E daylight
21 Apr - 19:36:19 10° NW 20:00:23 85° NE 20:16:44 10° ESE visible
21 Apr - 22:06:45 10° WNW 22:24:45 38° SW 22:36:06 10° SSE visible
22 Apr - 08:02:15 10° SSE 08:05:58 16° SE 08:10:49 10° E daylight
22 Apr - 10:18:26 10° WSW 10:25:56 86° NNW 10:40:31 10° NE daylight
22 Apr - 12:40:09 10° W 12:50:58 40° NNW 13:09:07 10° NE daylight
22 Apr - 15:05:24 10° NW 15:21:26 35° N 15:42:02 10° ENE daylight
22 Apr - 17:31:16 10° NW 17:53:27 53° NNE 18:13:33 10° E visible
22 Apr - 19:58:04 10° WNW 20:21:52 81° SW 20:37:44 10° SE visible
22 Apr - 22:30:27 10° W 22:45:33 27° SW 22:55:45 10° S visible
23 Apr - 08:21:23 10° S 08:26:26 27° SE 08:34:08 10° ENE daylight
23 Apr - 10:39:26 10° WSW 10:47:13 65° NNW 11:02:09 10° NE daylight
23 Apr - 13:02:06 10° WNW 13:13:24 35° N 13:31:28 10° NE daylight
23 Apr - 15:27:22 10° NW 15:44:28 37° NNE 16:05:26 10° ENE daylight
23 Apr - 17:52:47 10° NW 18:15:46 62° NNE 18:35:39 10° ESE visible
23 Apr - 20:20:02 10° WNW 20:43:08 66° SW 20:58:27 10° SE visible
23 Apr - 22:55:25 10° W 23:06:28 19° SW 23:14:41 10° S visible
24 Apr - 08:41:21 10° SSW 08:46:57 45° SE 08:56:31 10° ENE daylight
24 Apr - 11:00:42 10° W 11:08:47 50° NNW 11:23:46 10° NE daylight
24 Apr - 13:24:10 10° WNW 13:36:03 33° N 13:54:15 10° NE daylight
24 Apr - 15:49:08 10° NW 16:07:22 41° NNE 16:28:44 10° E daylight
24 Apr - 18:14:15 10° NW 18:37:48 73° NNE 18:57:23 10° ESE visible
24 Apr - 20:42:21 10° WNW 21:04:14 52° SW 21:18:54 10° SSE visible
24 Apr - 23:23:29 10° WSW 23:27:38 11° SW 23:31:20 10° SSW visible
25 Apr - 09:01:44 10° SW 09:07:39 70° SE 09:18:25 10° ENE daylight
25 Apr - 11:22:15 10° W 11:30:38 40° NNW 11:45:27 10° NE daylight
25 Apr - 13:46:12 10° NW 13:58:49 32° N 14:17:27 10° ENE daylight
25 Apr - 16:10:41 10° NW 16:30:02 47° NNE 16:51:46 10° E daylight
25 Apr - 18:35:45 10° NW 18:59:36 86° NE 19:18:48 10° SE visible
25 Apr - 21:05:11 10° WNW 21:25:16 40° SW 21:39:02 10° SSE visible
26 Apr - 07:06:35 10° SSE 07:08:58 13° SE 07:11:44 10° ESE daylight
26 Apr - 09:22:28 10° WSW 09:28:36 80° NNW 09:40:00 10° NE daylight
26 Apr - 11:44:00 10° WNW 11:52:42 34° N 12:07:23 10° NE daylight
26 Apr - 14:08:05 10° NW 14:21:39 33° N 14:41:00 10° ENE daylight
26 Apr - 16:32:05 10° NW 16:52:28 54° NNE 17:14:27 10° E daylight
26 Apr - 18:57:22 10° WNW 19:21:11 80° SW 19:39:53 10° SE visible
26 Apr - 21:28:47 10° W 21:46:18 30° SW 21:58:49 10° S visible
